Location: Newark
(55.8372°N, 37.1596°E)
Time: 03:08:36
(UTC+00:00)

Envisat - Pass Details

Date: 21 October 2019
Orbit: 764 x 766 km, 98.1° (Epoch: 22 November)

Event Time Altitude Azimuth Distance (km) Brightness Sun altitude
Rises 15:14:28 0° 162° (SSE) 3,225 6.1 -8.7°
Reaches altitude 10° 15:16:45 10° 163° (SSE) 2,303 5.4 -9.0°
Maximum altitude 15:21:51 89° 254° (WSW) 775 3.1 -9.7°
Drops below altitude 10° 15:26:59 10° 344° (NNW) 2,319 5.7 -10.4°
Sets 15:29:18 0° 345° (NNW) 3,249 6.4 -10.7°
